Regional Weather Roundup
Issued by NWS Newport/Morehead, NC

Current Version | Previous Version | Graphics & Text | Print | Product List | Glossary Off
Versions: 1 2 3 4 5 6 7 8 9 10 11 12 13 14 15 16 17 18 19 20 21 22 23 24 25 26 27 28 29 30 31 32 33 34 35 36 37 38 39 40 41

000
ASUS42 KMHX 241122
RWRMHX
WEATHER ROUNDUP FOR EASTERN NORTH CAROLINA
NATIONAL WEATHER SERVICE NEWPORT/MOREHEAD CITY NC
700 AM EDT THU APR 24 2014

NOTE: "FAIR" INDICATES FEW OR NO CLOUDS BELOW 12,000 FEET
WITH NO SIGNIFICANT WEATHER AND/OR OBSTRUCTIONS TO VISIBILITY

NCZ015>017-031-032-045>047-102-103-241200-
NORTH COAST

CITY           SKY/WX    TMP DP  RH WIND       PRES   REMARKS
EDENTON        CLEAR     43  36  75 N3        30.10R
ELIZABETH CITY CLEAR     47  33  58 NW8       30.08R
KITTY HAWK     SUNNY     49  35  58 N8        30.07R
MANTEO         CLEAR     49  36  60 N13       30.08R

$$

NCZ045>047-081-094-103-104-241200-
CENTRAL COAST

CITY           SKY/WX    TMP DP  RH WIND       PRES   REMARKS
FRISCO         CLEAR     51  35  54 N10G17    30.07R
SWANQUARTER      N/A     45 N/A N/A CALM      30.03R

$$

NCZ095-097-098-100-101-241200-
SOUTHERN COAST

CITY           SKY/WX    TMP DP  RH WIND       PRES   REMARKS
BEAUFORT       CLEAR     50  42  74 N8        30.07R
CEDAR ISLAND     N/A     55 N/A N/A N14G20    30.09R
JACKSONVILLE   CLEAR     49  41  74 N8        30.08R
NEWPORT          N/A     50  41  71 VRB6        N/A
PINEY ISLAND   SUNNY     56  38  50 NE12      30.07R
WILMINGTON     CLEAR     50  40  68 NE9       30.06R


$$

NCZ011>013-027>030-043-044-078>080-089-090>093-098-241200-
COASTAL PLAIN

CITY           SKY/WX    TMP DP  RH WIND       PRES   REMARKS
AHOSKIE        CLEAR     37  34  88 CALM      30.11R
CLINTON        CLEAR     47  40  76 CALM      30.09R
ELIZABETHTOWN  CLEAR     47  38  72 CALM      30.09R
GOLDSBORO      CLEAR     47  37  70 NE6       30.08R
GREENVILLE     CLEAR     45  36  70 CALM      30.11R
HAVELOCK       CLEAR     52  39  61 NE10      30.09R
KENANSVILLE    CLEAR     45  39  79 CALM      30.11R
KINSTON        CLEAR     45  37  76 N3        30.10R
NEW BERN       CLEAR     50  38  63 NE7       30.09R
RICHLANDS      CLEAR     48  46  93 N7        30.10R
ROANOKE RAPIDS NOT AVBL
ROCKY MOUNT    CLEAR     41  35  79 CALM      30.10R
WASHINGTON     CLEAR     46  37  73 CALM      30.11R
WHITEVILLE     CLEAR     52  37  58 NE7       30.08R

$$

AMZ130-135-150-152-154-156-158-170-250-252-270-ANZ085-086-088-633-658-670-241200-
MARINE OBSERVATIONS

STATION/POSITION TIME  TEMP    WIND        PRES    WAVE   SWELL
                       AIR SEA DIR/SP/G            HT/PER HT/PER
                 (UTC) (F)     (DEG/KT/KT) (MB)    (FT/S) (FT/S)
CHESAPEAKE LIGHT 1100   49     340/ 18/ 19 1018.4
BUOY 44014       1100   49 48  330/ 17/ 21 1016.8    7/ 6
DUCK             1100   51 51  350/ 17/ 19 1017.1
2E DUCK          1100      51                N/A     4/ 6   2/14
OREGON INLET     1100   49 55  350/  9/ 13 1018.2
BUOY 44095       1100      49                N/A     5/ 6   2/15
HATTERAS CG      1100   53 61   10/ 15/ 19 1018.4
DIAMOND BUOY     1100   55 74   10/ 21/ 25 1017.2    6/ 6   2/12
CAPE LOOKOUT     1100   56      20/ 14/ 17 1017.9
BEAUFORT LAB     1100   53 62   30/  5/  8 1017.6
30 SE NEW RIVER  1100   62 68   30/ 17/ 21 1017.2    3/ 4   2/ 9
5 SE WRIGHTSVILL 1100   58 60   40/ 16/ 19 1017.6
FRYING PAN BUOY  1100   66 68   40/ 14/ 16 1016.2    3/ 9   2/ 9
BUOY 41001       NOT AVBL
BUOY 41002       NOT AVBL
BUOY 41004       1100   71 70   70/ 14/ 16 1014.9    2/ 4   2/ 8

$$



USA.gov is the U.S. government's official web portal to all federal, state and local government web resources and services.